Location: Marstown
(39.5056°N, 77.0820°W)
Time: 12:45:41
(UTC-05:00)

ISS - Visible Passes

Search period start: 07 December 2019 00:00
Search period end: 17 December 2019 00:00
Orbit: 411 x 421 km, 51.6° (Epoch: 08 December)

Date Brightness Start Highest point End Pass type
(mag) Time Alt. Az. Time Alt. Az. Time Alt. Az.
07 Dec -2.6 17:52:06 10° NNW 17:55:00 26° NNE 17:55:48 24° NE visible
07 Dec -0.3 19:28:39 10° WNW 19:28:44 10° WNW 19:28:44 10° WNW visible
08 Dec -3.2 18:40:05 10° NW 18:42:52 56° WNW 18:42:52 56° WNW visible
09 Dec -3.8 17:51:39 10° NW 17:54:58 61° NE 17:57:17 18° ESE visible
09 Dec -0.4 19:29:32 10° W 19:30:15 12° WSW 19:30:15 12° WSW visible
10 Dec -1.5 18:40:16 10° WNW 18:43:03 24° SW 18:45:06 14° S visible
11 Dec -2.5 17:51:28 10° WNW 17:54:41 44° SW 17:57:53 10° SSE visible
13 Dec -0.5 17:52:07 10° W 17:54:08 15° SW 17:56:08 10° SSW visible
